IA5KRO-13 Weather Reports


time (UTC)temp
C
wind
direction
speed
KPH
gust
KPH
rain 1hr
cm
rain 24hr
cm
rain mn
cm
humidity
%
barometer
mb
20260507090032 23 203 0.0 1.6 0.00 0.00 0.00 55 1021.7
20260507085508 22 142 1.6 1.6 0.00 0.00 0.00 57 1021.7
20260507085013 23 169 1.6 1.6 0.00 0.00 0.00 56 1021.7
20260507084513 23 155 1.6 1.6 0.00 0.00 0.00 55 1021.7
20260507084013 23 161 0.0 1.6 0.00 0.00 0.00 54 1021.7
20260507083509 22 129 3.2 3.2 0.00 0.00 0.00 55 1021.7
20260507083022 22 146 0.0 1.6 0.00 0.00 0.00 57 1021.7
20260507082509 22 158 1.6 3.2 0.00 0.00 0.00 56 1021.7
20260507082013 22 131 1.6 3.2 0.00 0.00 0.00 57 1021.7
20260507081514 23 133 0.0 0.0 0.00 0.00 0.00 56 1021.7
20260507081013 22 168 1.6 1.6 0.00 0.00 0.00 57 1021.7
20260507080509 22 165 0.0 1.6 0.00 0.00 0.00 55 1021.7
20260507080031 22 165 1.6 1.6 0.00 0.00 0.00 58 1021.7
20260507075509 22 170 1.6 6.4 0.00 0.00 0.00 57 1021.7
20260507075013 22 107 0.0 1.6 0.00 0.00 0.00 55 1021.7
20260507074513 22 138 4.8 6.4 0.00 0.00 0.00 56 1021.7
20260507074013 22 154 0.0 1.6 0.00 0.00 0.00 58 1021.7
20260507073509 22 162 0.0 1.6 0.00 0.00 0.00 57 1022.0
20260507073024 22 147 0.0 0.0 0.00 0.00 0.00 57 1022.0
20260507072509 22 154 0.0 1.6 0.00 0.00 0.00 56 1022.0
20260507072014 22 168 0.0 1.6 0.00 0.00 0.00 59 1022.0
20260507071513 22 167 1.6 3.2 0.00 0.00 0.00 58 1022.0
20260507071014 22 162 0.0 0.0 0.00 0.00 0.00 58 1021.7
20260507070510 22 156 0.0 0.0 0.00 0.00 0.00 60 1021.7
20260507070033 21 175 1.6 1.6 0.00 0.00 0.00 60 1021.7
20260507065511 22 165 0.0 1.6 0.00 0.00 0.00 59 1021.7
20260507065014 21 166 3.2 3.2 0.00 0.00 0.00 59 1021.7
20260507064514 21 164 0.0 0.0 0.00 0.00 0.00 59 1021.7
20260507064014 22 164 0.0 0.0 0.00 0.00 0.00 58 1021.7
20260507063509 21 164 0.0 0.0 0.00 0.00 0.00 61 1021.7
20260507063023 20 168 0.0 0.0 0.00 0.00 0.00 66 1021.7
20260507062510 18 163 0.0 1.6 0.00 0.00 0.00 66 1021.7
20260507062013 18 155 1.6 1.6 0.00 0.00 0.00 69 1021.0
20260507061512 20 173 0.0 0.0 0.00 0.00 0.00 68 1021.0
20260507061013 18 166 0.0 0.0 0.00 0.00 0.00 72 1021.0
20260507060510 18 162 0.0 1.6 0.00 0.00 0.00 69 1021.0
20260507060034 18 166 0.0 0.0 0.00 0.00 0.00 69 1020.7
20260507055510 18 165 0.0 0.0 0.00 0.00 0.00 71 1020.7
20260507055014 17 168 0.0 0.0 0.00 0.00 0.00 73 1020.7
20260507054513 17 167 0.0 0.0 0.00 0.00 0.00 77 1020.7
20260507054013 17 177 0.0 0.0 0.00 0.00 0.00 77 1020.7
20260507053509 16 188 1.6 3.2 0.00 0.00 0.00 81 1020.7
20260507053022 15 244 4.8 4.8 0.00 0.00 0.00 81 1020.7
20260507052509 15 235 1.6 1.6 0.00 0.00 0.00 82 1020.7
20260507052014 15 207 3.2 3.2 0.00 0.00 0.00 82 1020.7
20260507051513 15 240 3.2 3.2 0.00 0.00 0.00 83 1020.7
20260507051014 13 273 3.2 3.2 0.00 0.00 0.00 85 1020.7
20260507050031 13 232 3.2 4.8 0.00 0.00 0.00 86 1020.3
20260507045509 12 209 3.2 4.8 0.00 0.00 0.00 89 1020.3
20260507045013 12 206 1.6 1.6 0.00 0.00 0.00 88 1020.3
20260507043509 12 181 1.6 3.2 0.00 0.00 0.00 88 1020.3
20260507043023 12 260 1.6 4.8 0.00 0.00 0.00 88 1020.3
20260507042509 12 218 3.2 4.8 0.00 0.00 0.00 89 1020.3
20260507042013 12 192 1.6 1.6 0.00 0.00 0.00 89 1020.0
20260507041513 12 213 1.6 3.2 0.00 0.00 0.00 89 1020.0
20260507041013 12 183 1.6 1.6 0.00 0.00 0.00 88 1020.3
20260507040509 12 187 3.2 3.2 0.00 0.00 0.00 88 1020.3
20260507040033 12 191 3.2 3.2 0.00 0.00 0.00 88 1020.3
20260507035509 12 178 1.6 1.6 0.00 0.00 0.00 88 1020.3
20260507035013 13 254 3.2 3.2 0.00 0.00 0.00 88 1020.3
20260507034512 12 264 1.6 1.6 0.00 0.00 0.00 89 1020.3
20260507034013 12 183 0.0 1.6 0.00 0.00 0.00 90 1020.3
20260507033509 13 178 0.0 1.6 0.00 0.00 0.00 90 1020.3
20260507033022 13 244 3.2 3.2 0.00 0.00 0.00 89 1020.3
20260507032510 13 216 3.2 4.8 0.00 0.00 0.00 89 1020.3
20260507032012 13 165 1.6 3.2 0.00 0.00 0.00 89 1020.0
20260507031512 13 261 3.2 6.4 0.00 0.00 0.00 90 1020.0
20260507031013 13 206 3.2 4.8 0.00 0.00 0.00 91 1020.3
20260507030509 13 199 3.2 3.2 0.00 0.00 0.00 91 1020.3
20260507030032 13 248 3.2 4.8 0.00 0.00 0.00 91 1020.3
20260507025509 13 247 1.6 1.6 0.00 0.00 0.00 91 1020.3
20260507025013 13 236 3.2 4.8 0.00 0.00 0.00 90 1020.3
20260507024514 13 249 4.8 6.4 0.00 0.00 0.00 91 1020.3
20260507024013 13 269 6.4 8.0 0.00 0.00 0.00 91 1020.3
20260507023509 13 180 1.6 1.6 0.00 0.00 0.00 91 1020.0
20260507023022 13 252 3.2 4.8 0.00 0.00 0.00 91 1020.0
20260507022510 13 194 1.6 3.2 0.00 0.00 0.00 91 1020.0
20260507022013 13 239 3.2 3.2 0.00 0.00 0.00 91 1020.3
20260507021512 13 180 1.6 1.6 0.00 0.00 0.00 92 1020.3
20260507021013 13 180 1.6 1.6 0.00 0.00 0.00 92 1020.3
20260507020509 13 267 4.8 4.8 0.00 0.00 0.00 91 1020.3
20260507020032 15 224 4.8 4.8 0.00 0.00 0.00 91 1020.0
20260507015510 15 292 4.8 4.8 0.00 0.00 0.00 90 1020.0
20260507015013 15 215 1.6 1.6 0.00 0.00 0.00 90 1020.0
20260507014513 15 172 0.0 0.0 0.00 0.00 0.00 90 1020.0
20260507014015 15 176 1.6 1.6 0.00 0.00 0.00 90 1020.0
20260507013510 15 249 3.2 4.8 0.00 0.00 0.00 90 1020.0
20260507013022 15 166 1.6 1.6 0.00 0.00 0.00 90 1020.0
20260507012509 15 233 3.2 3.2 0.00 0.00 0.00 89 1020.0
20260507012014 15 177 0.0 0.0 0.00 0.00 0.00 88 1020.0
20260507011512 15 182 1.6 1.6 0.00 0.00 0.00 88 1020.0
20260507011012 15 168 0.0 0.0 0.00 0.00 0.00 87 1020.0
20260507010509 15 180 1.6 1.6 0.00 0.00 0.00 87 1020.0
20260507010033 15 168 0.0 1.6 0.00 0.00 0.00 86 1020.0
20260507005509 15 225 3.2 3.2 0.00 0.00 0.00 85 1020.0
20260507005013 15 184 3.2 3.2 0.00 0.00 0.00 85 1020.0
20260507004512 16 178 1.6 1.6 0.00 0.00 0.00 84 1020.3
20260507004013 16 243 1.6 1.6 0.00 0.00 0.00 84 1020.3
20260507003510 16 166 0.0 0.0 0.00 0.00 0.00 83 1020.0
20260507003023 16 168 0.0 0.0 0.00 0.00 0.00 82 1020.0
20260507002510 16 169 0.0 0.0 0.00 0.00 0.00 81 1020.0
20260507002014 16 169 0.0 1.6 0.00 0.00 0.00 81 1020.0
20260507001513 16 164 1.6 1.6 0.00 0.00 0.00 80 1020.0
20260507001012 16 172 0.0 0.0 0.00 0.00 0.00 80 1020.3
20260507000510 17 155 0.0 0.0 0.00 0.00 0.00 81 1020.3
20260507000034 17 180 1.6 1.6 0.00 0.00 0.00 80 1020.0
20260506235509 17 182 0.0 1.6 0.00 0.00 0.00 80 1020.0
20260506235013 17 172 0.0 1.6 0.00 0.00 0.00 80 1020.0
20260506234514 16 148 1.6 1.6 0.00 0.00 0.00 79 1020.0
20260506234013 16 173 1.6 1.6 0.00 0.00 0.00 81 1020.0
20260506233509 16 172 1.6 1.6 0.00 0.00 0.00 83 1020.0
20260506233023 16 230 1.6 4.8 0.00 0.00 0.00 84 1020.0
20260506232509 16 173 1.6 1.6 0.00 0.00 0.00 85 1020.0
20260506231513 16 159 1.6 1.6 0.00 0.00 0.00 90 1020.0
20260506231013 15 164 0.0 0.0 0.00 0.00 0.00 91 1020.0
20260506230509 15 220 3.2 3.2 0.00 0.00 0.00 90 1020.0
20260506230032 15 180 1.6 1.6 0.00 0.00 0.00 91 1020.0
20260506225511 15 287 3.2 3.2 0.00 0.00 0.00 91 1020.0
20260506224514 16 176 1.6 1.6 0.00 0.00 0.00 91 1019.6
20260506222510 16 180 1.6 1.6 0.00 0.00 0.00 88 1020.0
20260506222013 17 201 1.6 1.6 0.00 0.00 0.00 89 1019.6
20260506221514 17 173 0.0 3.2 0.00 0.00 0.00 90 1019.6
20260506220509 17 174 0.0 1.6 0.00 0.00 0.00 89 1019.6
20260506215510 17 169 3.2 4.8 0.00 0.20 0.20 89 1019.6
20260506215013 17 179 1.6 3.2 0.00 0.20 0.20 89 1019.6
20260506214513 17 179 0.0 0.0 0.00 0.20 0.20 88 1019.6
20260506214013 17 180 1.6 3.2 0.00 0.20 0.20 88 1019.6
20260506213509 17 260 1.6 1.6 0.00 0.20 0.20 87 1019.6
20260506212513 17 169 1.6 4.8 0.00 0.20 0.20 87 1019.6
20260506212013 17 255 1.6 1.6 0.00 0.20 0.20 88 1019.6
20260506211512 17 203 1.6 1.6 0.00 0.20 0.20 88 1019.6
20260506211013 17 163 3.2 4.8 0.00 0.20 0.20 88 1019.6
20260506210509 17 106 1.6 3.2 0.00 0.20 0.20 88 1019.6
20260506210032 17 170 0.0 1.6 0.00 0.20 0.20 87 1019.6
20260506205509 17 179 0.0 0.0 0.00 0.20 0.20 87 1019.6
20260506205013 17 180 1.6 1.6 0.00 0.20 0.20 87 1019.6
20260506204514 17 106 1.6 1.6 0.00 0.20 0.20 86 1019.6
20260506203509 17 150 1.6 1.6 0.00 0.20 0.20 86 1019.3
20260506203023 17 181 1.6 1.6 0.00 0.20 0.20 85 1019.3
20260506202013 17 164 4.8 8.0 0.00 0.20 0.20 84 1019.3
20260506201512 17 154 1.6 1.6 0.00 0.20 0.20 84 1019.3
20260506201013 17 163 0.0 0.0 0.00 0.20 0.20 83 1019.3
20260506200510 17 167 0.0 0.0 0.00 0.20 0.20 84 1019.3
20260506200031 17 170 0.0 1.6 0.00 0.20 0.20 84 1019.0
20260506195509 17 169 0.0 0.0 0.00 0.20 0.20 84 1019.0
20260506195013 17 165 1.6 1.6 0.00 0.20 0.20 84 1019.0
20260506194512 17 164 0.0 0.0 0.00 0.20 0.20 84 1019.0
20260506194013 17 213 1.6 1.6 0.00 0.20 0.20 83 1019.0
20260506193509 17 165 0.0 0.0 0.00 0.20 0.20 82 1018.3
20260506193024 17 167 1.6 1.6 0.00 0.20 0.20 81 1018.3
20260506192509 17 297 3.2 4.8 0.00 0.20 0.20 81 1018.3
20260506191015 17 188 3.2 4.8 0.00 0.20 0.20 83 1018.3
20260506190509 17 263 4.8 4.8 0.00 0.20 0.20 83 1018.3
20260506190033 17 168 0.0 1.6 0.00 0.20 0.20 83 1018.0
20260506185509 17 235 1.6 3.2 0.00 0.20 0.20 80 1018.0
20260506185013 17 170 0.0 1.6 0.00 0.20 0.20 79 1018.0
20260506184512 17 279 6.4 11.3 0.00 0.20 0.20 79 1018.0
20260506184014 18 228 0.0 1.6 0.00 0.20 0.20 78 1018.0
20260506183509 17 217 9.7 11.3 0.00 0.20 0.20 78 1018.0
20260506183023 17 180 1.6 1.6 0.00 0.20 0.20 79 1018.0
20260506182510 17 173 1.6 3.2 0.00 0.20 0.20 79 1018.0
20260506182014 18 171 4.8 6.4 0.00 0.20 0.20 80 1017.6
20260506181514 18 267 4.8 4.8 0.00 0.20 0.20 78 1017.6
20260506181020 18 268 3.2 4.8 0.00 0.20 0.20 79 1018.0
20260506180509 18 108 3.2 4.8 0.00 0.20 0.20 80 1018.0
20260506180033 18 171 1.6 1.6 0.00 0.20 0.20 80 1017.6
20260506175509 18 131 6.4 8.0 0.00 0.20 0.20 78 1017.6
20260506175013 18 172 0.0 0.0 0.00 0.20 0.20 78 1017.6
20260506174513 18 129 0.0 1.6 0.00 0.20 0.20 79 1017.6
20260506174013 18 173 1.6 8.0 0.00 0.20 0.20 80 1017.6
20260506173510 18 167 1.6 1.6 0.00 0.20 0.20 81 1018.0
20260506173027 18 160 1.6 4.8 0.00 0.20 0.20 82 1018.0
20260506172014 18 129 0.0 1.6 0.00 0.20 0.20 81 1017.6
20260506171513 18 141 1.6 1.6 0.00 0.20 0.20 82 1017.6
20260506171014 18 266 3.2 4.8 0.00 0.20 0.20 79 1017.6
20260506170509 18 171 1.6 1.6 0.00 0.20 0.20 80 1017.6
20260506170033 18 180 3.2 6.4 0.00 0.20 0.20 81 1017.6
20260506165510 18 143 1.6 3.2 0.00 0.20 0.20 81 1018.0
20260506165013 18 171 1.6 1.6 0.00 0.20 0.20 82 1018.0
20260506164512 18 67 1.6 4.8 0.00 0.20 0.20 82 1018.0
20260506164014 18 233 3.2 3.2 0.00 0.20 0.20 80 1018.0
20260506163026 18 140 3.2 3.2 0.00 0.20 0.20 81 1018.0
20260506162510 18 176 9.7 17.7 0.00 0.20 0.20 79 1018.0
20260506162013 18 103 3.2 4.8 0.00 0.20 0.20 77 1018.0
20260506161512 18 310 4.8 8.0 0.00 0.20 0.20 76 1018.0
20260506161014 20 170 1.6 1.6 0.00 0.20 0.20 76 1018.0
20260506160509 20 148 3.2 3.2 0.00 0.20 0.20 76 1018.0
20260506160035 20 180 1.6 1.6 0.00 0.20 0.20 76 1018.0
20260506155510 20 106 4.8 6.4 0.00 0.20 0.20 75 1018.0
20260506155014 21 160 1.6 1.6 0.00 0.20 0.20 73 1018.0
20260506154512 21 158 0.0 1.6 0.00 0.20 0.20 72 1018.0
20260506154014 21 161 0.0 0.0 0.00 0.20 0.20 72 1018.0
20260506153512 21 167 0.0 1.6 0.00 0.20 0.20 71 1018.0
20260506153025 21 168 0.0 0.0 0.00 0.20 0.20 70 1018.0
20260506152513 21 166 0.0 1.6 0.00 0.20 0.20 70 1018.0
20260506152012 21 151 1.6 1.6 0.00 0.20 0.20 69 1018.0
20260506151514 22 159 0.0 1.6 0.00 0.20 0.20 67 1018.0
20260506151013 22 141 0.0 1.6 0.00 0.20 0.20 66 1018.0
20260506150510 22 172 0.0 0.0 0.00 0.20 0.20 66 1018.0
20260506150034 22 143 0.0 1.6 0.00 0.20 0.20 66 1018.0
20260506145510 22 163 0.0 1.6 0.00 0.20 0.20 68 1018.0
20260506145014 22 176 1.6 1.6 0.00 0.20 0.20 66 1018.0
20260506144513 22 151 1.6 1.6 0.00 0.20 0.20 67 1018.0
20260506144013 21 281 3.2 9.7 0.00 0.20 0.20 66 1018.0
20260506143509 21 217 3.2 8.0 0.00 0.20 0.20 66 1018.0
20260506143024 21 190 6.4 8.0 0.00 0.20 0.20 66 1018.0
20260506142510 21 264 1.6 3.2 0.00 0.20 0.20 66 1018.0
20260506142013 21 270 1.6 3.2 0.00 0.20 0.20 65 1018.0
20260506141513 22 220 1.6 1.6 0.00 0.20 0.20 66 1018.0
20260506141013 22 102 1.6 3.2 0.00 0.20 0.20 66 1018.0
20260506140509 22 161 1.6 1.6 0.00 0.20 0.20 66 1018.0
20260506140033 22 257 6.4 12.9 0.00 0.20 0.20 65 1018.0
20260506135509 22 235 3.2 3.2 0.00 0.20 0.20 63 1018.0
20260506135014 22 164 3.2 6.4 0.00 0.20 0.20 59 1018.0
20260506134513 22 168 4.8 8.0 0.00 0.20 0.20 57 1018.0
20260506134015 23 313 3.2 3.2 0.00 0.20 0.20 54 1018.0
20260506133510 23 167 1.6 4.8 0.00 0.20 0.20 57 1018.0
20260506133024 22 170 1.6 4.8 0.00 0.20 0.20 59 1018.0
20260506132510 22 281 1.6 3.2 0.00 0.20 0.20 60 1018.0
20260506132014 22 210 3.2 3.2 0.00 0.20 0.20 63 1018.0
20260506131513 22 275 6.4 8.0 0.00 0.20 0.20 61 1018.0
20260506130510 22 226 8.0 9.7 0.00 0.20 0.20 64 1018.0
20260506130035 22 298 3.2 4.8 0.00 0.20 0.20 62 1018.0
20260506125509 22 282 6.4 11.3 0.00 0.20 0.20 63 1018.0
20260506125013 22 181 3.2 3.2 0.00 0.20 0.20 65 1018.0
20260506124513 22 229 6.4 9.7 0.00 0.20 0.20 66 1018.0
20260506124014 22 234 12.9 17.7 0.00 0.20 0.20 67 1018.0
20260506123509 22 258 9.7 17.7 0.00 0.20 0.20 66 1018.3
20260506123025 22 167 6.4 9.7 0.00 0.20 0.20 64 1018.3
20260506122509 22 264 12.9 16.1 0.00 0.20 0.20 65 1018.3
20260506122014 22 300 6.4 6.4 0.00 0.20 0.20 65 1018.0
20260506121513 22 280 6.4 12.9 0.00 0.20 0.20 66 1018.0
20260506121014 22 288 9.7 16.1 0.00 0.20 0.20 66 1018.3
20260506120509 22 250 6.4 6.4 0.00 0.20 0.20 67 1018.3
20260506120034 21 229 9.7 12.9 0.00 0.20 0.20 69 1018.3
20260506115509 21 309 9.7 12.9 0.00 0.20 0.20 69 1018.0
20260506115013 21 288 9.7 11.3 0.00 0.20 0.20 70 1018.0
20260506114512 21 181 4.8 9.7 0.00 0.20 0.20 69 1018.3
20260506114013 22 258 11.3 17.7 0.00 0.20 0.20 67 1018.3
20260506113510 22 289 9.7 11.3 0.00 0.20 0.20 66 1018.0
20260506113024 22 264 6.4 11.3 0.00 0.20 0.20 65 1018.0
20260506112509 22 300 6.4 14.5 0.00 0.20 0.20 66 1018.0
20260506112013 21 320 14.5 17.7 0.00 0.20 0.20 68 1017.6
20260506111513 21 147 11.3 14.5 0.00 0.20 0.20 69 1017.6
20260506111014 21 296 12.9 22.5 0.00 0.20 0.20 70 1018.0
20260506110510 21 255 9.7 17.7 0.00 0.20 0.20 70 1018.0
20260506110032 20 189 17.7 20.9 0.00 0.20 0.20 73 1018.0
20260506105510 21 273 17.7 22.5 0.00 0.20 0.20 69 1018.0
20260506105013 22 282 17.7 17.7 0.00 0.20 0.20 64 1018.0
20260506104513 21 284 14.5 16.1 0.00 0.20 0.20 68 1018.0
20260506104013 21 303 4.8 9.7 0.00 0.20 0.20 67 1018.0
20260506103508 21 305 9.7 17.7 0.00 0.20 0.20 69 1018.3
20260506103023 21 306 14.5 24.1 0.00 0.20 0.20 68 1018.3
20260506102509 21 301 6.4 8.0 0.00 0.20 0.20 69 1018.3
20260506102013 21 302 14.5 25.7 0.00 0.20 0.20 69 1019.0
20260506101513 20 123 6.4 11.3 0.00 0.20 0.20 73 1019.0
20260506101013 20 274 12.9 17.7 0.00 0.20 0.20 70 1018.3
20260506100509 18 249 9.7 12.9 0.00 0.20 0.20 74 1018.3
20260506100036 20 296 11.3 16.1 0.00 0.20 0.20 75 1018.3
20260506095509 18 264 9.7 11.3 0.00 0.20 0.20 75 1018.3
20260506095013 18 283 9.7 12.9 0.00 0.20 0.20 74 1018.3
20260506094513 20 310 9.7 14.5 0.00 0.20 0.20 72 1018.3
20260506094014 18 282 12.9 22.5 0.00 0.20 0.20 77 1018.3
20260506093510 18 280 9.7 12.9 0.00 0.20 0.20 78 1018.3
20260506093023 18 281 6.4 9.7 0.00 0.20 0.20 79 1018.3
20260506092509 17 171 6.4 11.3 0.00 0.20 0.20 84 1018.3
20260506092013 18 170 1.6 3.2 0.00 0.20 0.20 85 1018.0
20260506091512 18 210 3.2 4.8 0.00 0.20 0.20 85 1018.0
20260506091012 18 220 3.2 4.8 0.00 0.20 0.20 84 1017.6
20260506090509 18 148 4.8 9.7 0.00 0.20 0.20 83 1017.6